Multibeam Report for KRY13_05


Ship Name: Keary
Chief Scientist: Cullen, Sean
Source Organization: Geological Survey of Ireland (GSI)
Start Date: 2013-07-26
End Date: 2013-08-19


View ISO Metadata

Visit the full NCEI Bathymetry Viewer


Multibeam Bathymetry

Cruise Details

Project: INFOMAR
Instrument: Kongsberg EM2040D

Data Quality

Number of Files: 415
Number of Records: 9098347
BATHYMETRY DATA Quantity Percentage
Number of Beams 3636348400 100%
Number of Good Beams 3629375513 99.81%
Number of Zero Beams 0 0%
Number of Flagged Beams 6972887 0.19%
AMPLITUDE DATA Quantity Percentage
Number of Beams 3636348400 100%
Number of Good Beams 3629375513 99.81%
Number of Zero Beams 0 0%
Number of Flagged Beams 6972887 0.19%
SIDESCAN DATA Quantity Percentage
Number of Pixels 9309051904 100%
Number of Good Pixels 4123122772 44.29%
Number of Zero Pixels 0 0%
Number of Flagged Pixels 5185929132 55.71%

Navigation Totals

Total Time: 71.7313 hours
Total Track Length: 996.5327 km
Average Speed: 13.893 km/hr (7.5016 knots)

Cruise Bounds

Northern Extent: 52.651558
Southern Extent: 52.45187
Western Extent: -9.784765
Eastern Extent: -9.054974

Limits

Minimum Sonar Depth 1.3876 Maximum Sonar Depth 2.7532
Minimum Altitude 0 Maximum Altitude 42.2355
Minimum Depth 1.4961 Maximum Depth 59.4985
Minimum Amplitude 0 Maximum Amplitude 20.2
Minimum Sidescan 0 Maximum Sidescan 29.8

File Information

Full Resolution Bathymetry as collected (raw): 414

Files File Size Description
0001_20130726_180948_Keary.all.mb58.gz 0.72MB Kongsberg multibeam vendor format
0001_20130727_105559_Keary.all.mb58.gz 194.21MB Kongsberg multibeam vendor format
0002_20130727_110846_Keary.all.mb58.gz 784.03MB Kongsberg multibeam vendor format
0003_20130727_121345_Keary.all.mb58.gz 533.84MB Kongsberg multibeam vendor format
0004_20130727_125132_Keary.all.mb58.gz 757.53MB Kongsberg multibeam vendor format
0005_20130727_132452_Keary.all.mb58.gz 366.34MB Kongsberg multibeam vendor format
0006_20130727_134206_Keary.all.mb58.gz 586.24MB Kongsberg multibeam vendor format
0007_20130727_140935_Keary.all.mb58.gz 775.61MB Kongsberg multibeam vendor format
0008_20130727_152158_Keary.all.mb58.gz 676.70MB Kongsberg multibeam vendor format
0009_20130727_154725_Keary.all.mb58.gz 191.83MB Kongsberg multibeam vendor format
0010_20130728_083850_Keary.all.mb58.gz 0.72MB Kongsberg multibeam vendor format
0010_20130728_090755_Keary.all.mb58.gz 495.09MB Kongsberg multibeam vendor format
0011_20130728_093019_Keary.all.mb58.gz 678.30MB Kongsberg multibeam vendor format
0012_20130728_095636_Keary.all.mb58.gz 696.35MB Kongsberg multibeam vendor format
0013_20130728_102258_Keary.all.mb58.gz 488.88MB Kongsberg multibeam vendor format
0014_20130728_103908_Keary.all.mb58.gz 103.37MB Kongsberg multibeam vendor format
0015_20130728_105011_Keary.all.mb58.gz 774.88MB Kongsberg multibeam vendor format
0016_20130728_115302_Keary.all.mb58.gz 603.89MB Kongsberg multibeam vendor format
0017_20130728_121843_Keary.all.mb58.gz 933.82MB Kongsberg multibeam vendor format
0018_20130728_125814_Keary.all.mb58.gz 747.77MB Kongsberg multibeam vendor format
0019_20130728_133051_Keary.all.mb58.gz 1082.00MB Kongsberg multibeam vendor format
0020_20130728_141503_Keary.all.mb58.gz 857.33MB Kongsberg multibeam vendor format
0021_20130728_144543_Keary.all.mb58.gz 880.53MB Kongsberg multibeam vendor format
0022_20130728_151354_Keary.all.mb58.gz 267.99MB Kongsberg multibeam vendor format
0023_20130728_152150_Keary.all.mb58.gz 239.41MB Kongsberg multibeam vendor format
0024_20130728_153704_Keary.all.mb58.gz 831.89MB Kongsberg multibeam vendor format
0025_20130728_160511_Keary.all.mb58.gz 772.61MB Kongsberg multibeam vendor format
0026_20130728_163351_Keary.all.mb58.gz 943.72MB Kongsberg multibeam vendor format
0027_20130728_170421_Keary.all.mb58.gz 143.66MB Kongsberg multibeam vendor format
0028_20130728_171006_Keary.all.mb58.gz 86.61MB Kongsberg multibeam vendor format
0029_20130728_171336_Keary.all.mb58.gz 30.79MB Kongsberg multibeam vendor format
0030_20130728_171617_Keary.all.mb58.gz 49.34MB Kongsberg multibeam vendor format
0031_20130728_172014_Keary.all.mb58.gz 108.52MB Kongsberg multibeam vendor format
0032_20130728_172855_Keary.all.mb58.gz 69.48MB Kongsberg multibeam vendor format
0033_20130729_100058_Keary.all.mb58.gz 127.20MB Kongsberg multibeam vendor format
0033_20130729_100646_Keary.all.mb58.gz 198.50MB Kongsberg multibeam vendor format
0034_20130729_101337_Keary.all.mb58.gz 125.78MB Kongsberg multibeam vendor format
0035_20130729_101941_Keary.all.mb58.gz 165.06MB Kongsberg multibeam vendor format
0036_20130729_102515_Keary.all.mb58.gz 163.74MB Kongsberg multibeam vendor format
0037_20130729_103024_Keary.all.mb58.gz 201.11MB Kongsberg multibeam vendor format
0038_20130729_103947_Keary.all.mb58.gz 188.21MB Kongsberg multibeam vendor format
0039_20130729_104503_Keary.all.mb58.gz 204.78MB Kongsberg multibeam vendor format
0040_20130729_105040_Keary.all.mb58.gz 229.61MB Kongsberg multibeam vendor format
0041_20130729_105711_Keary.all.mb58.gz 213.25MB Kongsberg multibeam vendor format
0042_20130729_110509_Keary.all.mb58.gz 207.03MB Kongsberg multibeam vendor format
0043_20130729_111326_Keary.all.mb58.gz 114.68MB Kongsberg multibeam vendor format
0044_20130729_111639_Keary.all.mb58.gz 158.62MB Kongsberg multibeam vendor format
0045_20130729_112046_Keary.all.mb58.gz 107.12MB Kongsberg multibeam vendor format
0046_20130729_112459_Keary.all.mb58.gz 193.61MB Kongsberg multibeam vendor format
0047_20130729_113146_Keary.all.mb58.gz 129.23MB Kongsberg multibeam vendor format
0048_20130729_113656_Keary.all.mb58.gz 177.40MB Kongsberg multibeam vendor format
0049_20130729_114222_Keary.all.mb58.gz 53.28MB Kongsberg multibeam vendor format
0050_20130729_115236_Keary.all.mb58.gz 109.75MB Kongsberg multibeam vendor format
0051_20130729_115544_Keary.all.mb58.gz 45.43MB Kongsberg multibeam vendor format
0052_20130729_120317_Keary.all.mb58.gz 281.34MB Kongsberg multibeam vendor format
0053_20130729_121935_Keary.all.mb58.gz 171.92MB Kongsberg multibeam vendor format
0054_20130729_123647_Keary.all.mb58.gz 449.11MB Kongsberg multibeam vendor format
0055_20130729_125311_Keary.all.mb58.gz 81.29MB Kongsberg multibeam vendor format
0056_20130729_125838_Keary.all.mb58.gz 34.78MB Kongsberg multibeam vendor format
0057_20130729_135541_Keary.all.mb58.gz 728.29MB Kongsberg multibeam vendor format
0058_20130729_142109_Keary.all.mb58.gz 570.40MB Kongsberg multibeam vendor format
0059_20130729_144712_Keary.all.mb58.gz 727.09MB Kongsberg multibeam vendor format
0060_20130729_150716_Keary.all.mb58.gz 558.31MB Kongsberg multibeam vendor format
0061_20130729_154337_Keary.all.mb58.gz 644.28MB Kongsberg multibeam vendor format
0062_20130729_160055_Keary.all.mb58.gz 28.40MB Kongsberg multibeam vendor format
0063_20130729_160402_Keary.all.mb58.gz 891.35MB Kongsberg multibeam vendor format
0064_20130729_163221_Keary.all.mb58.gz 687.18MB Kongsberg multibeam vendor format
0065_20130729_165014_Keary.all.mb58.gz 842.32MB Kongsberg multibeam vendor format
0066_20130730_093858_Keary.all.mb58.gz 574.42MB Kongsberg multibeam vendor format
0067_20130730_100058_Keary.all.mb58.gz 474.39MB Kongsberg multibeam vendor format
0068_20130730_101434_Keary.all.mb58.gz 133.35MB Kongsberg multibeam vendor format
0069_20130730_102802_Keary.all.mb58.gz 468.27MB Kongsberg multibeam vendor format
0070_20130730_104037_Keary.all.mb58.gz 141.86MB Kongsberg multibeam vendor format
0071_20130730_104706_Keary.all.mb58.gz 370.44MB Kongsberg multibeam vendor format
0072_20130730_105858_Keary.all.mb58.gz 44.75MB Kongsberg multibeam vendor format
0073_20130730_110134_Keary.all.mb58.gz 43.84MB Kongsberg multibeam vendor format
0074_20130730_111325_Keary.all.mb58.gz 763.13MB Kongsberg multibeam vendor format
0075_20130730_113408_Keary.all.mb58.gz 835.22MB Kongsberg multibeam vendor format
0076_20130730_120112_Keary.all.mb58.gz 840.99MB Kongsberg multibeam vendor format
0077_20130730_122135_Keary.all.mb58.gz 448.2KB Kongsberg multibeam vendor format
0077_20130730_122826_Keary.all.mb58.gz 122.69MB Kongsberg multibeam vendor format
0078_20130730_123409_Keary.all.mb58.gz 122.62MB Kongsberg multibeam vendor format
0079_20130730_123930_Keary.all.mb58.gz 150.87MB Kongsberg multibeam vendor format
0080_20130730_124849_Keary.all.mb58.gz 181.31MB Kongsberg multibeam vendor format
0081_20130730_125606_Keary.all.mb58.gz 194.27MB Kongsberg multibeam vendor format
0082_20130730_130539_Keary.all.mb58.gz 181.44MB Kongsberg multibeam vendor format
0083_20130730_132502_Keary.all.mb58.gz 200.71MB Kongsberg multibeam vendor format
0084_20130730_133226_Keary.all.mb58.gz 340.05MB Kongsberg multibeam vendor format
0085_20130730_135107_Keary.all.mb58.gz 27.52MB Kongsberg multibeam vendor format
0086_20130730_135250_Keary.all.mb58.gz 214.92MB Kongsberg multibeam vendor format
0087_20130730_141101_Keary.all.mb58.gz 175.55MB Kongsberg multibeam vendor format
0088_20130730_141847_Keary.all.mb58.gz 306.82MB Kongsberg multibeam vendor format
0089_20130730_143250_Keary.all.mb58.gz 381.78MB Kongsberg multibeam vendor format
0089_20130730_144029_Keary.all.mb58.gz 41.07MB Kongsberg multibeam vendor format
0090_20130730_152840_Keary.all.mb58.gz 804.85MB Kongsberg multibeam vendor format
0091_20130730_155636_Keary.all.mb58.gz 1002.76MB Kongsberg multibeam vendor format
0092_20130730_162312_Keary.all.mb58.gz 848.99MB Kongsberg multibeam vendor format
0093_20130730_165123_Keary.all.mb58.gz 35.82MB Kongsberg multibeam vendor format
0094_20130731_092509_Keary.all.mb58.gz 690.73MB Kongsberg multibeam vendor format
0095_20130731_095511_Keary.all.mb58.gz 31.41MB Kongsberg multibeam vendor format
0096_20130731_100309_Keary.all.mb58.gz 630.55MB Kongsberg multibeam vendor format
0097_20130731_104152_Keary.all.mb58.gz 958.75MB Kongsberg multibeam vendor format
0098_20130731_110450_Keary.all.mb58.gz 69.05MB Kongsberg multibeam vendor format
0099_20130731_111806_Keary.all.mb58.gz 680.79MB Kongsberg multibeam vendor format
0100_20130731_114301_Keary.all.mb58.gz 695.28MB Kongsberg multibeam vendor format
0101_20130731_120358_Keary.all.mb58.gz 682.34MB Kongsberg multibeam vendor format
0102_20130731_122333_Keary.all.mb58.gz 758.29MB Kongsberg multibeam vendor format
0103_20130731_124437_Keary.all.mb58.gz 655.43MB Kongsberg multibeam vendor format
0104_20130731_130634_Keary.all.mb58.gz 981.81MB Kongsberg multibeam vendor format
0105_20130731_133336_Keary.all.mb58.gz 658.30MB Kongsberg multibeam vendor format
0106_20130731_135244_Keary.all.mb58.gz 808.04MB Kongsberg multibeam vendor format
0107_20130801_102028_Keary.all.mb58.gz 256.52MB Kongsberg multibeam vendor format
0108_20130801_102629_Keary.all.mb58.gz 266.95MB Kongsberg multibeam vendor format
0109_20130801_103239_Keary.all.mb58.gz 422.71MB Kongsberg multibeam vendor format
0110_20130801_104359_Keary.all.mb58.gz 214.64MB Kongsberg multibeam vendor format
0111_20130801_104907_Keary.all.mb58.gz 328.35MB Kongsberg multibeam vendor format
0112_20130801_105825_Keary.all.mb58.gz 447.78MB Kongsberg multibeam vendor format
0113_20130801_111115_Keary.all.mb58.gz 576.06MB Kongsberg multibeam vendor format
0114_20130801_112449_Keary.all.mb58.gz 518.62MB Kongsberg multibeam vendor format
0115_20130801_113733_Keary.all.mb58.gz 573.81MB Kongsberg multibeam vendor format
0116_20130801_115052_Keary.all.mb58.gz 549.81MB Kongsberg multibeam vendor format
0117_20130801_120405_Keary.all.mb58.gz 625.79MB Kongsberg multibeam vendor format
0118_20130801_121857_Keary.all.mb58.gz 605.25MB Kongsberg multibeam vendor format
0119_20130801_123234_Keary.all.mb58.gz 730.18MB Kongsberg multibeam vendor format
0120_20130801_130827_Keary.all.mb58.gz 812.44MB Kongsberg multibeam vendor format
0121_20130801_132633_Keary.all.mb58.gz 842.64MB Kongsberg multibeam vendor format
0122_20130801_135136_Keary.all.mb58.gz 861.24MB Kongsberg multibeam vendor format
0123_20130801_141324_Keary.all.mb58.gz 599.22MB Kongsberg multibeam vendor format
0124_20130801_142944_Keary.all.mb58.gz 610.51MB Kongsberg multibeam vendor format
0125_20130801_144602_Keary.all.mb58.gz 564.95MB Kongsberg multibeam vendor format
0126_20130801_150115_Keary.all.mb58.gz 714.71MB Kongsberg multibeam vendor format
0127_20130801_152014_Keary.all.mb58.gz 641.14MB Kongsberg multibeam vendor format
0128_20130801_154951_Keary.all.mb58.gz 838.99MB Kongsberg multibeam vendor format
0129_20130801_161901_Keary.all.mb58.gz 120.18MB Kongsberg multibeam vendor format
0130_20130801_162443_Keary.all.mb58.gz 46.71MB Kongsberg multibeam vendor format
0131_20130801_163037_Keary.all.mb58.gz 43.09MB Kongsberg multibeam vendor format
0132_20130801_163414_Keary.all.mb58.gz 38.75MB Kongsberg multibeam vendor format
0133_20130801_163751_Keary.all.mb58.gz 42.78MB Kongsberg multibeam vendor format
0134_20130801_164146_Keary.all.mb58.gz 59.17MB Kongsberg multibeam vendor format
0135_20130801_170043_Keary.all.mb58.gz 174.33MB Kongsberg multibeam vendor format
0136_20130803_102548_Keary.all.mb58.gz 400.94MB Kongsberg multibeam vendor format
0137_20130803_104500_Keary.all.mb58.gz 419.21MB Kongsberg multibeam vendor format
0138_20130803_105833_Keary.all.mb58.gz 25.11MB Kongsberg multibeam vendor format
0139_20130803_110253_Keary.all.mb58.gz 89.64MB Kongsberg multibeam vendor format
0140_20130803_110611_Keary.all.mb58.gz 48.35MB Kongsberg multibeam vendor format
0141_20130803_112239_Keary.all.mb58.gz 245.58MB Kongsberg multibeam vendor format
0142_20130803_113203_Keary.all.mb58.gz 246.05MB Kongsberg multibeam vendor format
0143_20130803_115412_Keary.all.mb58.gz 178.45MB Kongsberg multibeam vendor format
0144_20130803_120221_Keary.all.mb58.gz 195.02MB Kongsberg multibeam vendor format
0145_20130803_120955_Keary.all.mb58.gz 91.21MB Kongsberg multibeam vendor format
0146_20130803_121422_Keary.all.mb58.gz 151.45MB Kongsberg multibeam vendor format
0147_20130803_121919_Keary.all.mb58.gz 73.28MB Kongsberg multibeam vendor format
0148_20130803_124441_Keary.all.mb58.gz 124.52MB Kongsberg multibeam vendor format
0149_20130803_124934_Keary.all.mb58.gz 179.64MB Kongsberg multibeam vendor format
0150_20130803_125611_Keary.all.mb58.gz 315.52MB Kongsberg multibeam vendor format
0151_20130803_132209_Keary.all.mb58.gz 45.62MB Kongsberg multibeam vendor format
0152_20130803_132337_Keary.all.mb58.gz 275.54MB Kongsberg multibeam vendor format
0153_20130803_133102_Keary.all.mb58.gz 53.03MB Kongsberg multibeam vendor format
0154_20130803_133419_Keary.all.mb58.gz 37.35MB Kongsberg multibeam vendor format
0155_20130803_133624_Keary.all.mb58.gz 113.03MB Kongsberg multibeam vendor format
0156_20130803_134240_Keary.all.mb58.gz 250.41MB Kongsberg multibeam vendor format
0157_20130803_140405_Keary.all.mb58.gz 758.53MB Kongsberg multibeam vendor format
0158_20130803_143451_Keary.all.mb58.gz 979.41MB Kongsberg multibeam vendor format
0159_20130803_151134_Keary.all.mb58.gz 992.65MB Kongsberg multibeam vendor format
0160_20130803_154752_Keary.all.mb58.gz 1375.60MB Kongsberg multibeam vendor format
0161_20130803_162411_Keary.all.mb58.gz 1454.47MB Kongsberg multibeam vendor format
0162_20130803_170410_Keary.all.mb58.gz 123.05MB Kongsberg multibeam vendor format
0163_20130803_170837_Keary.all.mb58.gz 32.67MB Kongsberg multibeam vendor format
0164_20130803_171117_Keary.all.mb58.gz 463.11MB Kongsberg multibeam vendor format
0165_20130803_172603_Keary.all.mb58.gz 28.21MB Kongsberg multibeam vendor format
0166_20130803_172836_Keary.all.mb58.gz 39.27MB Kongsberg multibeam vendor format
0167_20130803_173631_Keary.all.mb58.gz 131.38MB Kongsberg multibeam vendor format
0168_20130803_174146_Keary.all.mb58.gz 42.65MB Kongsberg multibeam vendor format
0169_20130803_174440_Keary.all.mb58.gz 34.72MB Kongsberg multibeam vendor format
0170_20130804_150011_KEARY.all.mb58.gz 26.65MB Kongsberg multibeam vendor format
0170_20130806_095000_KEARY.all.mb58.gz 274.46MB Kongsberg multibeam vendor format
0171_20130806_095632_KEARY.all.mb58.gz 275.01MB Kongsberg multibeam vendor format
0172_20130806_100328_KEARY.all.mb58.gz 436.33MB Kongsberg multibeam vendor format
0173_20130806_101000_KEARY.all.mb58.gz 62.08MB Kongsberg multibeam vendor format
0174_20130806_101449_KEARY.all.mb58.gz 310.38MB Kongsberg multibeam vendor format
0175_20130806_102544_KEARY.all.mb58.gz 325.94MB Kongsberg multibeam vendor format
0176_20130806_103219_KEARY.all.mb58.gz 310.61MB Kongsberg multibeam vendor format
0177_20130806_103927_KEARY.all.mb58.gz 368.91MB Kongsberg multibeam vendor format
0178_20130806_104751_KEARY.all.mb58.gz 427.99MB Kongsberg multibeam vendor format
0179_20130806_105713_KEARY.all.mb58.gz 488.04MB Kongsberg multibeam vendor format
0180_20130806_110806_KEARY.all.mb58.gz 917.84MB Kongsberg multibeam vendor format
0181_20130806_113027_KEARY.all.mb58.gz 741.74MB Kongsberg multibeam vendor format
0182_20130806_114537_KEARY.all.mb58.gz 969.46MB Kongsberg multibeam vendor format
0183_20130806_120436_KEARY.all.mb58.gz 824.52MB Kongsberg multibeam vendor format
0184_20130806_122035_KEARY.all.mb58.gz 1312.01MB Kongsberg multibeam vendor format
0185_20130806_124644_KEARY.all.mb58.gz 79.80MB Kongsberg multibeam vendor format
0186_20130806_125007_KEARY.all.mb58.gz 49.27MB Kongsberg multibeam vendor format
0187_20130806_125148_KEARY.all.mb58.gz 45.48MB Kongsberg multibeam vendor format
0188_20130806_125438_KEARY.all.mb58.gz 237.57MB Kongsberg multibeam vendor format
0189_20130806_130006_KEARY.all.mb58.gz 61.43MB Kongsberg multibeam vendor format
0190_20130806_130255_KEARY.all.mb58.gz 505.29MB Kongsberg multibeam vendor format
0191_20130806_131537_KEARY.all.mb58.gz 1110.20MB Kongsberg multibeam vendor format
0192_20130806_133702_KEARY.all.mb58.gz 796.44MB Kongsberg multibeam vendor format
0193_20130806_135611_KEARY.all.mb58.gz 1149.20MB Kongsberg multibeam vendor format
0194_20130806_141809_KEARY.all.mb58.gz 502.69MB Kongsberg multibeam vendor format
0195_20130806_142741_KEARY.all.mb58.gz 27.00MB Kongsberg multibeam vendor format
0196_20130806_142911_KEARY.all.mb58.gz 392.33MB Kongsberg multibeam vendor format
0197_20130806_143806_KEARY.all.mb58.gz 1084.43MB Kongsberg multibeam vendor format
0198_20130806_150556_KEARY.all.mb58.gz 922.85MB Kongsberg multibeam vendor format
0199_20130806_152314_KEARY.all.mb58.gz 447.18MB Kongsberg multibeam vendor format
0200_20130806_153317_KEARY.all.mb58.gz 584.23MB Kongsberg multibeam vendor format
0201_20130806_154526_KEARY.all.mb58.gz 24.04MB Kongsberg multibeam vendor format
0202_20130806_154656_KEARY.all.mb58.gz 19.55MB Kongsberg multibeam vendor format
0203_20130806_154847_KEARY.all.mb58.gz 37.90MB Kongsberg multibeam vendor format
0204_20130806_155146_KEARY.all.mb58.gz 29.25MB Kongsberg multibeam vendor format
0205_20130806_155547_KEARY.all.mb58.gz 268.94MB Kongsberg multibeam vendor format
0206_20130806_160757_KEARY.all.mb58.gz 360.43MB Kongsberg multibeam vendor format
0207_20130806_162422_KEARY.all.mb58.gz 360.79MB Kongsberg multibeam vendor format
0208_20130806_163627_KEARY.all.mb58.gz 450.84MB Kongsberg multibeam vendor format
0209_20130806_164921_KEARY.all.mb58.gz 396.83MB Kongsberg multibeam vendor format
0210_20130806_170029_KEARY.all.mb58.gz 424.47MB Kongsberg multibeam vendor format
0211_20130806_171151_KEARY.all.mb58.gz 490.50MB Kongsberg multibeam vendor format
0212_20130807_094541_KEARY.all.mb58.gz 770.29MB Kongsberg multibeam vendor format
0213_20130807_101801_KEARY.all.mb58.gz 878.31MB Kongsberg multibeam vendor format
0214_20130807_104801_KEARY.all.mb58.gz 391.59MB Kongsberg multibeam vendor format
0214_20130807_111146_KEARY.all.mb58.gz 1027.88MB Kongsberg multibeam vendor format
0215_20130807_114146_KEARY.all.mb58.gz 57.14MB Kongsberg multibeam vendor format
0215_20130807_120548_KEARY.all.mb58.gz 378.95MB Kongsberg multibeam vendor format
0216_20130807_122029_KEARY.all.mb58.gz 34.45MB Kongsberg multibeam vendor format
0216_20130807_122228_KEARY.all.mb58.gz 31.74MB Kongsberg multibeam vendor format
0217_20130807_122843_KEARY.all.mb58.gz 588.43MB Kongsberg multibeam vendor format
0218_20130807_124700_KEARY.all.mb58.gz 59.88MB Kongsberg multibeam vendor format
0219_20130807_132156_KEARY.all.mb58.gz 1259.16MB Kongsberg multibeam vendor format
0220_20130807_140759_KEARY.all.mb58.gz 697.88MB Kongsberg multibeam vendor format
0221_20130807_143159_KEARY.all.mb58.gz 57.84MB Kongsberg multibeam vendor format
0222_20130807_144659_KEARY.all.mb58.gz 1137.31MB Kongsberg multibeam vendor format
0223_20130807_153225_KEARY.all.mb58.gz 758.20MB Kongsberg multibeam vendor format
0224_20130807_160309_KEARY.all.mb58.gz 1051.74MB Kongsberg multibeam vendor format
0225_20130807_164031_KEARY.all.mb58.gz 766.33MB Kongsberg multibeam vendor format
0226_20130807_170657_KEARY.all.mb58.gz 181.39MB Kongsberg multibeam vendor format
0227_20130807_171539_KEARY.all.mb58.gz 40.07MB Kongsberg multibeam vendor format
0228_20130807_172327_KEARY.all.mb58.gz 474.53MB Kongsberg multibeam vendor format
0229_20130808_112206_KEARY.all.mb58.gz 1008.86MB Kongsberg multibeam vendor format
0230_20130808_120219_KEARY.all.mb58.gz 744.66MB Kongsberg multibeam vendor format
0231_20130808_122735_KEARY.all.mb58.gz 1177.38MB Kongsberg multibeam vendor format
0232_20130808_130347_KEARY.all.mb58.gz 1097.77MB Kongsberg multibeam vendor format
0233_20130808_133024_KEARY.all.mb58.gz 67.42MB Kongsberg multibeam vendor format
0234_20130808_133245_KEARY.all.mb58.gz 127.17MB Kongsberg multibeam vendor format
0235_20130808_133938_KEARY.all.mb58.gz 1088.73MB Kongsberg multibeam vendor format
0236_20130808_142843_KEARY.all.mb58.gz 1393.48MB Kongsberg multibeam vendor format
0237_20130808_150147_KEARY.all.mb58.gz 1185.67MB Kongsberg multibeam vendor format
0238_20130808_153231_KEARY.all.mb58.gz 383.93MB Kongsberg multibeam vendor format
0239_20130808_155036_KEARY.all.mb58.gz 653.40MB Kongsberg multibeam vendor format
0240_20130808_161443_KEARY.all.mb58.gz 534.23MB Kongsberg multibeam vendor format
0241_20130809_084759_KEARY.all.mb58.gz 2099.03MB Kongsberg multibeam vendor format
0242_20130809_093648_KEARY.all.mb58.gz 2684.20MB Kongsberg multibeam vendor format
0243_20130809_102551_KEARY.all.mb58.gz 859.19MB Kongsberg multibeam vendor format
0244_20130809_103947_KEARY.all.mb58.gz 156.92MB Kongsberg multibeam vendor format
0245_20130809_104325_KEARY.all.mb58.gz 587.19MB Kongsberg multibeam vendor format
0246_20130809_105155_KEARY.all.mb58.gz 83.30MB Kongsberg multibeam vendor format
0247_20130809_105423_KEARY.all.mb58.gz 684.12MB Kongsberg multibeam vendor format
0248_20130809_110932_KEARY.all.mb58.gz 642.99MB Kongsberg multibeam vendor format
0249_20130809_112025_KEARY.all.mb58.gz 26.02MB Kongsberg multibeam vendor format
0250_20130809_112232_KEARY.all.mb58.gz 109.38MB Kongsberg multibeam vendor format
0251_20130809_112508_KEARY.all.mb58.gz 48.33MB Kongsberg multibeam vendor format
0252_20130809_112658_KEARY.all.mb58.gz 208.40MB Kongsberg multibeam vendor format
0253_20130809_113114_KEARY.all.mb58.gz 70.90MB Kongsberg multibeam vendor format
0254_20130809_113348_KEARY.all.mb58.gz 1709.42MB Kongsberg multibeam vendor format
0255_20130809_120043_KEARY.all.mb58.gz 315.89MB Kongsberg multibeam vendor format
0256_20130809_121118_KEARY.all.mb58.gz 890.94MB Kongsberg multibeam vendor format
0257_20130809_123357_KEARY.all.mb58.gz 981.29MB Kongsberg multibeam vendor format
0258_20130809_125654_KEARY.all.mb58.gz 1000.97MB Kongsberg multibeam vendor format
0259_20130809_133217_KEARY.all.mb58.gz 919.57MB Kongsberg multibeam vendor format
0260_20130809_135507_KEARY.all.mb58.gz 69.18MB Kongsberg multibeam vendor format
0261_20130809_140151_KEARY.all.mb58.gz 952.70MB Kongsberg multibeam vendor format
0262_20130809_142653_KEARY.all.mb58.gz 331.32MB Kongsberg multibeam vendor format
0263_20130809_143948_KEARY.all.mb58.gz 843.23MB Kongsberg multibeam vendor format
0264_20130809_150508_KEARY.all.mb58.gz 950.65MB Kongsberg multibeam vendor format
0265_20130809_152822_KEARY.all.mb58.gz 38.90MB Kongsberg multibeam vendor format
0266_20130809_153155_KEARY.all.mb58.gz 310.27MB Kongsberg multibeam vendor format
0267_20130809_154220_KEARY.all.mb58.gz 873.25MB Kongsberg multibeam vendor format
0268_20130809_160617_KEARY.all.mb58.gz 1167.27MB Kongsberg multibeam vendor format
0269_20130809_163520_KEARY.all.mb58.gz 889.45MB Kongsberg multibeam vendor format
0270_20130809_165828_KEARY.all.mb58.gz 373.29MB Kongsberg multibeam vendor format
0271_20130809_171009_KEARY.all.mb58.gz 20.09MB Kongsberg multibeam vendor format
0272_20130809_171309_KEARY.all.mb58.gz 779.72MB Kongsberg multibeam vendor format
0273_20130809_173829_KEARY.all.mb58.gz 1800.16MB Kongsberg multibeam vendor format
0274_20130810_095158_KEARY.all.mb58.gz 1754.49MB Kongsberg multibeam vendor format
0275_20130810_102710_KEARY.all.mb58.gz 1612.24MB Kongsberg multibeam vendor format
0276_20130810_110435_KEARY.all.mb58.gz 1055.98MB Kongsberg multibeam vendor format
0277_20130810_113001_KEARY.all.mb58.gz 61.29MB Kongsberg multibeam vendor format
0278_20130810_113929_KEARY.all.mb58.gz 1629.28MB Kongsberg multibeam vendor format
0279_20130810_121105_KEARY.all.mb58.gz 1236.50MB Kongsberg multibeam vendor format
0280_20130810_124126_KEARY.all.mb58.gz 1206.65MB Kongsberg multibeam vendor format
0281_20130810_130224_KEARY.all.mb58.gz 51.99MB Kongsberg multibeam vendor format
0282_20130810_130420_KEARY.all.mb58.gz 20.58MB Kongsberg multibeam vendor format
0282_20130810_130643_KEARY.all.mb58.gz 102.70MB Kongsberg multibeam vendor format
0283_20130810_131057_KEARY.all.mb58.gz 454.31MB Kongsberg multibeam vendor format
0284_20130810_133703_KEARY.all.mb58.gz 1538.04MB Kongsberg multibeam vendor format
0285_20130810_140952_KEARY.all.mb58.gz 1275.62MB Kongsberg multibeam vendor format
0286_20130810_143532_KEARY.all.mb58.gz 1628.19MB Kongsberg multibeam vendor format
0287_20130810_151554_KEARY.all.mb58.gz 1133.43MB Kongsberg multibeam vendor format
0288_20130810_154141_KEARY.all.mb58.gz 554.23MB Kongsberg multibeam vendor format
0289_20130810_155619_KEARY.all.mb58.gz 786.65MB Kongsberg multibeam vendor format
0290_20130810_161327_KEARY.all.mb58.gz 1067.73MB Kongsberg multibeam vendor format
0291_20130810_164025_KEARY.all.mb58.gz 1395.96MB Kongsberg multibeam vendor format
0292_20130810_170927_KEARY.all.mb58.gz 809.68MB Kongsberg multibeam vendor format
0293_20130810_173503_KEARY.all.mb58.gz 268.61MB Kongsberg multibeam vendor format
0294_20130811_092722_KEARY.all.mb58.gz 1288.34MB Kongsberg multibeam vendor format
0295_20130811_095600_KEARY.all.mb58.gz 1432.38MB Kongsberg multibeam vendor format
0296_20130811_102809_KEARY.all.mb58.gz 597.04MB Kongsberg multibeam vendor format
0297_20130811_104324_KEARY.all.mb58.gz 443.13MB Kongsberg multibeam vendor format
0298_20130811_105325_KEARY.all.mb58.gz 208.33MB Kongsberg multibeam vendor format
0299_20130811_105947_KEARY.all.mb58.gz 62.47MB Kongsberg multibeam vendor format
0300_20130811_110236_KEARY.all.mb58.gz 653.11MB Kongsberg multibeam vendor format
0301_20130811_111546_KEARY.all.mb58.gz 1214.65MB Kongsberg multibeam vendor format
0302_20130811_114009_KEARY.all.mb58.gz 85.13MB Kongsberg multibeam vendor format
0303_20130811_114319_KEARY.all.mb58.gz 106.15MB Kongsberg multibeam vendor format
0304_20130811_114648_KEARY.all.mb58.gz 910.93MB Kongsberg multibeam vendor format
0305_20130811_120248_KEARY.all.mb58.gz 862.27MB Kongsberg multibeam vendor format
0306_20130811_121615_KEARY.all.mb58.gz 26.99MB Kongsberg multibeam vendor format
0307_20130811_121741_KEARY.all.mb58.gz 373.49MB Kongsberg multibeam vendor format
0308_20130811_124640_KEARY.all.mb58.gz 1049.90MB Kongsberg multibeam vendor format
0309_20130811_130247_KEARY.all.mb58.gz 1153.25MB Kongsberg multibeam vendor format
0310_20130811_132033_KEARY.all.mb58.gz 1065.68MB Kongsberg multibeam vendor format
0311_20130811_134024_KEARY.all.mb58.gz 1046.80MB Kongsberg multibeam vendor format
0312_20130811_135647_KEARY.all.mb58.gz 1103.99MB Kongsberg multibeam vendor format
0313_20130811_141331_KEARY.all.mb58.gz 735.90MB Kongsberg multibeam vendor format
0314_20130811_142549_KEARY.all.mb58.gz 65.24MB Kongsberg multibeam vendor format
0315_20130811_142837_KEARY.all.mb58.gz 215.38MB Kongsberg multibeam vendor format
0316_20130811_143501_KEARY.all.mb58.gz 1045.37MB Kongsberg multibeam vendor format
0317_20130811_145104_KEARY.all.mb58.gz 802.29MB Kongsberg multibeam vendor format
0318_20130811_150429_KEARY.all.mb58.gz 1069.59MB Kongsberg multibeam vendor format
0319_20130811_152237_KEARY.all.mb58.gz 800.02MB Kongsberg multibeam vendor format
0320_20130811_153609_KEARY.all.mb58.gz 668.36MB Kongsberg multibeam vendor format
0321_20130811_154714_KEARY.all.mb58.gz 451.68MB Kongsberg multibeam vendor format
0322_20130812_091516_KEARY.all.mb58.gz 287.80MB Kongsberg multibeam vendor format
0323_20130812_092319_KEARY.all.mb58.gz 353.08MB Kongsberg multibeam vendor format
0324_20130812_093209_KEARY.all.mb58.gz 295.10MB Kongsberg multibeam vendor format
0325_20130812_093943_KEARY.all.mb58.gz 345.01MB Kongsberg multibeam vendor format
0326_20130812_095052_KEARY.all.mb58.gz 181.93MB Kongsberg multibeam vendor format
0327_20130812_095544_KEARY.all.mb58.gz 168.74MB Kongsberg multibeam vendor format
0328_20130812_100009_KEARY.all.mb58.gz 136.73MB Kongsberg multibeam vendor format
0329_20130812_100326_KEARY.all.mb58.gz 102.33MB Kongsberg multibeam vendor format
0330_20130812_100607_KEARY.all.mb58.gz 51.45MB Kongsberg multibeam vendor format
0331_20130812_101509_KEARY.all.mb58.gz 383.90MB Kongsberg multibeam vendor format
0332_20130812_102525_KEARY.all.mb58.gz 249.57MB Kongsberg multibeam vendor format
0333_20130812_103034_KEARY.all.mb58.gz 141.10MB Kongsberg multibeam vendor format
0334_20130812_103418_KEARY.all.mb58.gz 215.14MB Kongsberg multibeam vendor format
0335_20130812_104101_KEARY.all.mb58.gz 67.08MB Kongsberg multibeam vendor format
0336_20130812_104332_KEARY.all.mb58.gz 42.82MB Kongsberg multibeam vendor format
0337_20130812_104933_KEARY.all.mb58.gz 133.88MB Kongsberg multibeam vendor format
0338_20130812_105246_KEARY.all.mb58.gz 141.06MB Kongsberg multibeam vendor format
0339_20130812_105510_KEARY.all.mb58.gz 128.84MB Kongsberg multibeam vendor format
0340_20130812_105834_KEARY.all.mb58.gz 61.14MB Kongsberg multibeam vendor format
0341_20130812_110024_KEARY.all.mb58.gz 82.64MB Kongsberg multibeam vendor format
0342_20130812_111156_KEARY.all.mb58.gz 243.49MB Kongsberg multibeam vendor format
0343_20130812_111728_KEARY.all.mb58.gz 160.12MB Kongsberg multibeam vendor format
0344_20130812_112108_KEARY.all.mb58.gz 132.72MB Kongsberg multibeam vendor format
0345_20130812_112407_KEARY.all.mb58.gz 286.80MB Kongsberg multibeam vendor format
0346_20130812_112944_KEARY.all.mb58.gz 215.92MB Kongsberg multibeam vendor format
0347_20130812_113359_KEARY.all.mb58.gz 231.50MB Kongsberg multibeam vendor format
0348_20130812_113923_KEARY.all.mb58.gz 113.11MB Kongsberg multibeam vendor format
0349_20130812_115243_KEARY.all.mb58.gz 131.95MB Kongsberg multibeam vendor format
0350_20130812_115611_KEARY.all.mb58.gz 99.68MB Kongsberg multibeam vendor format
0351_20130812_115914_KEARY.all.mb58.gz 125.97MB Kongsberg multibeam vendor format
0352_20130812_120238_KEARY.all.mb58.gz 55.45MB Kongsberg multibeam vendor format
0353_20130812_120404_KEARY.all.mb58.gz 56.13MB Kongsberg multibeam vendor format
0354_20130812_120607_KEARY.all.mb58.gz 37.98MB Kongsberg multibeam vendor format
0355_20130812_120755_KEARY.all.mb58.gz 33.13MB Kongsberg multibeam vendor format
0356_20130812_124328_KEARY.all.mb58.gz 330.84MB Kongsberg multibeam vendor format
0357_20130812_125245_KEARY.all.mb58.gz 439.91MB Kongsberg multibeam vendor format
0358_20130812_130851_KEARY.all.mb58.gz 424.85MB Kongsberg multibeam vendor format
0359_20130812_132547_KEARY.all.mb58.gz 401.90MB Kongsberg multibeam vendor format
0360_20130812_142358_KEARY.all.mb58.gz 578.60MB Kongsberg multibeam vendor format
0361_20130812_144948_KEARY.all.mb58.gz 99.13MB Kongsberg multibeam vendor format
0362_20130812_150307_KEARY.all.mb58.gz 101.39MB Kongsberg multibeam vendor format
0363_20130812_151419_KEARY.all.mb58.gz 234.83MB Kongsberg multibeam vendor format
0364_20130813_095319_KEARY.all.mb58.gz 259.33MB Kongsberg multibeam vendor format
0365_20130813_100615_KEARY.all.mb58.gz 263.32MB Kongsberg multibeam vendor format
0366_20130813_101648_KEARY.all.mb58.gz 245.98MB Kongsberg multibeam vendor format
0367_20130813_102822_KEARY.all.mb58.gz 251.14MB Kongsberg multibeam vendor format
0368_20130813_103756_KEARY.all.mb58.gz 240.24MB Kongsberg multibeam vendor format
0369_20130813_104708_KEARY.all.mb58.gz 251.92MB Kongsberg multibeam vendor format
0370_20130813_105744_KEARY.all.mb58.gz 109.77MB Kongsberg multibeam vendor format
0371_20130813_110248_KEARY.all.mb58.gz 102.16MB Kongsberg multibeam vendor format
0372_20130813_110717_KEARY.all.mb58.gz 75.95MB Kongsberg multibeam vendor format
0373_20130813_111156_KEARY.all.mb58.gz 51.95MB Kongsberg multibeam vendor format
0374_20130813_111424_KEARY.all.mb58.gz 29.70MB Kongsberg multibeam vendor format
0375_20130813_112236_KEARY.all.mb58.gz 920.33MB Kongsberg multibeam vendor format
0376_20130813_120031_KEARY.all.mb58.gz 244.26MB Kongsberg multibeam vendor format
0377_20130813_132327_KEARY.all.mb58.gz 339.82MB Kongsberg multibeam vendor format
0378_20130813_134311_KEARY.all.mb58.gz 967.70MB Kongsberg multibeam vendor format
0379_20130813_141613_KEARY.all.mb58.gz 1218.70MB Kongsberg multibeam vendor format
0380_20130813_145458_KEARY.all.mb58.gz 1192.84MB Kongsberg multibeam vendor format
0381_20130813_153337_KEARY.all.mb58.gz 1360.55MB Kongsberg multibeam vendor format
0382_20130813_161314_KEARY.all.mb58.gz 137.10MB Kongsberg multibeam vendor format
0383_20130813_162058_KEARY.all.mb58.gz 517.80MB Kongsberg multibeam vendor format
0384_20130813_164000_KEARY.all.mb58.gz 130.41MB Kongsberg multibeam vendor format
0385_20130819_090108_KEARY.all.mb58.gz 18.93MB Kongsberg multibeam vendor format
0385_20130819_092931_KEARY.all.mb58.gz 107.04MB Kongsberg multibeam vendor format
0386_20130819_094624_KEARY.all.mb58.gz 63.72MB Kongsberg multibeam vendor format
0387_20130819_095417_KEARY.all.mb58.gz 62.66MB Kongsberg multibeam vendor format
0388_20130819_100300_KEARY.all.mb58.gz 53.81MB Kongsberg multibeam vendor format
0389_20130819_101734_KEARY.all.mb58.gz 51.84MB Kongsberg multibeam vendor format
0390_20130819_102613_KEARY.all.mb58.gz 69.98MB Kongsberg multibeam vendor format
0391_20130819_103709_KEARY.all.mb58.gz 72.09MB Kongsberg multibeam vendor format
0392_20130819_105319_KEARY.all.mb58.gz 75.88MB Kongsberg multibeam vendor format
0393_20130819_112736_KEARY.all.mb58.gz 56.35MB Kongsberg multibeam vendor format
0394_20130819_114150_KEARY.all.mb58.gz 46.87MB Kongsberg multibeam vendor format
0395_20130819_120105_KEARY.all.mb58.gz 599.82MB Kongsberg multibeam vendor format
0396_20130819_123733_KEARY.all.mb58.gz 1239.11MB Kongsberg multibeam vendor format
0397_20130819_133028_KEARY.all.mb58.gz 689.53MB Kongsberg multibeam vendor format
0398_20130819_140151_KEARY.all.mb58.gz 967.07MB Kongsberg multibeam vendor format
0399_20130819_143248_KEARY.all.mb58.gz 371.85MB Kongsberg multibeam vendor format
0400_20130819_144911_KEARY.all.mb58.gz 898.42MB Kongsberg multibeam vendor format
0401_20130819_152146_KEARY.all.mb58.gz 792.02MB Kongsberg multibeam vendor format
0402_20130819_155104_KEARY.all.mb58.gz 958.34MB Kongsberg multibeam vendor format
1500_20130804_153858_KEARY.all.mb58.gz 790.18MB Kongsberg multibeam vendor format

Metadata Files: 1

Files File Size Description
KRY13_05_Multibeam.xml NGDC created ISO metadata